Photometre #843[NE_1.6_Dp] Stornoway_MO AOT

File : 20200924_843.hum

24/09/2020,07:23:24,TEMP=7.2,BA=5.68,STAT.A,ExtBa=12.30
24/09/2020,07:28:25,TEMP=7.7,BA=5.68,STAT.A,ExtBa=12.30
24/09/2020,07:34:18,TEMP=8.1,BA=5.64,STAT.A,ExtBa=12.20
24/09/2020,07:41:19,TEMP=8.6,BA=5.68,STAT.A,ExtBa=12.20
24/09/2020,07:49:51,TEMP=9.2,BA=5.68,STAT.A,ExtBa=12.20
24/09/2020,08:00:29,TEMP=9.7,BA=5.68,STAT.A,ExtBa=12.20
24/09/2020,08:14:06,TEMP=10.1,BA=5.68,STAT.B,ExtBa=12.20
24/09/2020,08:23:04,TEMP=10.9,BA=5.64,STAT.A,ExtBa=12.10
24/09/2020,08:28:12,TEMP=10.6,BA=5.64,STAT.A,ExtBa=12.10
24/09/2020,08:36:46,TEMP=10.7,BA=5.60,STAT.A,ExtBa=12.20
24/09/2020,08:46:40,TEMP=11.0,BA=5.68,STAT.A,ExtBa=12.20
24/09/2020,08:58:17,TEMP=11.4,BA=5.68,STAT.C,ExtBa=12.20
24/09/2020,09:23:34,TEMP=12.9,BA=5.64,STAT.A,ExtBa=12.00
24/09/2020,09:26:42,TEMP=12.6,BA=5.64,STAT.F,ExtBa=12.00
24/09/2020,09:53:03,TEMP=13.6,BA=5.64,STAT.D,ExtBa=12.00
24/09/2020,09:56:17,TEMP=13.3,BA=5.64,STAT.D,ExtBa=12.00
24/09/2020,10:02:07,TEMP=13.2,BA=5.68,STAT.D,ExtBa=12.10
24/09/2020,10:17:08,TEMP=13.4,BA=5.68,STAT.F,ExtBa=12.10
24/09/2020,10:44:37,TEMP=14.3,BA=5.64,STAT.D,ExtBa=12.00
24/09/2020,10:47:07,TEMP=14.4,BA=5.64,STAT.D,ExtBa=12.00
24/09/2020,11:02:07,TEMP=14.5,BA=5.68,STAT.D,ExtBa=12.10
24/09/2020,11:17:08,TEMP=14.7,BA=5.68,STAT.F,ExtBa=12.10
24/09/2020,11:42:15,TEMP=14.6,BA=5.64,STAT.D,ExtBa=12.00
24/09/2020,11:47:07,TEMP=14.2,BA=5.64,STAT.D,ExtBa=12.00
24/09/2020,12:02:07,TEMP=13.7,BA=5.64,STAT.D,ExtBa=12.10
24/09/2020,12:17:09,TEMP=14.3,BA=5.64,STAT.F,ExtBa=12.10
24/09/2020,12:44:17,TEMP=15.0,BA=5.64,STAT.D,ExtBa=12.00
24/09/2020,12:48:07,TEMP=14.5,BA=5.64,STAT.D,ExtBa=12.00
24/09/2020,13:02:07,TEMP=13.9,BA=5.64,STAT.D,ExtBa=12.10
24/09/2020,13:17:09,TEMP=14.1,BA=5.64,STAT.F,ExtBa=12.10
24/09/2020,13:44:49,TEMP=15.1,BA=5.60,STAT.D,ExtBa=11.90
24/09/2020,13:48:05,TEMP=14.7,BA=5.60,STAT.D,ExtBa=12.00
24/09/2020,14:02:07,TEMP=13.9,BA=5.64,STAT.D,ExtBa=12.10
24/09/2020,14:17:08,TEMP=13.6,BA=5.64,STAT.F,ExtBa=12.10
24/09/2020,14:41:49,TEMP=15.4,BA=5.60,STAT.D,ExtBa=11.90
24/09/2020,14:47:08,TEMP=14.7,BA=5.60,STAT.D,ExtBa=12.00
24/09/2020,15:02:07,TEMP=14.5,BA=5.64,STAT.D,ExtBa=12.10
24/09/2020,15:17:08,TEMP=14.5,BA=5.64,STAT.F,ExtBa=12.10
24/09/2020,15:41:24,TEMP=14.7,BA=5.60,STAT.A,ExtBa=11.90
24/09/2020,15:44:33,TEMP=14.3,BA=5.60,STAT.C,ExtBa=12.00
24/09/2020,16:08:19,TEMP=13.9,BA=5.60,STAT.A,ExtBa=11.90
24/09/2020,16:11:27,TEMP=13.5,BA=5.60,STAT.A,ExtBa=12.00
24/09/2020,16:13:35,TEMP=13.5,BA=5.60,STAT.A,ExtBa=12.00
24/09/2020,16:15:43,TEMP=13.5,BA=5.60,STAT.A,ExtBa=12.00
24/09/2020,16:20:10,TEMP=13.0,BA=5.60,STAT.B,ExtBa=12.00
24/09/2020,16:33:47,TEMP=12.5,BA=5.64,STAT.A,ExtBa=12.00
24/09/2020,16:44:25,TEMP=12.1,BA=5.64,STAT.A,ExtBa=12.10
24/09/2020,16:52:57,TEMP=11.8,BA=5.64,STAT.A,ExtBa=12.10
24/09/2020,16:59:58,TEMP=11.6,BA=5.64,STAT.A,ExtBa=12.10
24/09/2020,17:05:51,TEMP=11.4,BA=5.64,STAT.A,ExtBa=12.10
24/09/2020,17:10:51,TEMP=11.3,BA=5.68,STAT.A,ExtBa=12.10